Smithfield, RI

10:37 PM EST on February 23, 2017 (GMT -0500)
North Central State

Weather History for KSFZ - December, 2011

Change the Weather History Date:

Thursday, December 22, 2011

  Actual Average Record
Temperature  
Mean Temperature 48 °F -  
Max Temperature 53 °F 37 °F 62 °F (2013)
Min Temperature 42 °F 22 °F 12 °F (1997)
Degree Days  
Heating Degree Days 18    
Moisture  
Dew Point 39 °F    
Average Humidity 68    
Maximum Humidity 88    
Minimum Humidity 50    
Precipitation  
Precipitation 0.06 in - - ()
Sea Level Pressure  
Sea Level Pressure 29.95 in    
Wind  
Wind Speed 10 mph (West)    
Max Wind Speed 17 mph    
Max Gust Speed 31 mph    
Visibility 10 miles    
Events      
Averages and records for this station are not official NWS values.
T = Trace of Precipitation, MM = Missing Value Source: NWS Daily Summary

Daily Weather History Graph

Daily Weather History Graph

Search for Another Location

Airport or City:

Trip Planner

Search our weather history database for the weather conditions in past years. The results will help you decide how hot, cold, wet, or windy it might be!

Date:

Astronomy

Dec. 22, 2011 Rise Set
Actual Time 7:10 AM EST 4:18 PM EST
Civil Twilight 6:39 AM EST 4:49 PM EST
Nautical Twilight 6:03 AM EST 5:25 PM EST
Astronomical Twilight 5:29 AM EST 5:59 PM EST
Moon 4:50 AM EST (12/22) 2:25 PM EST (12/22)
Length of Visible Light 10h 10m
Length of Day
9h 07m
Waning Crescent, 6% of the Moon is Illuminated
Dec 22
Waning Crescent
Dec 24
New
Jan 1
First Quarter
Jan 9
Full
Jan 16
Last Quarter

Hourly Weather History & Observations

Time (EST) Temp. Windchill Dew Point Humidity Pressure Visibility Wind Dir Wind Speed Gust Speed Precip Events Conditions
12:35 AM 53.6 °F - 48.2 °F 82% 29.65 in 10.0 mi West 15.0 mph 31.1 mph 0.04 in   Overcast
12:55 AM 53.6 °F - 48.2 °F 82% 29.64 in 10.0 mi West 9.2 mph - 0.06 in   Overcast
1:35 AM 51.8 °F - 48.2 °F 88% 29.66 in 10.0 mi West 11.5 mph 21.9 mph N/A   Mostly Cloudy
1:55 AM 51.8 °F - 48.2 °F 88% 29.68 in 10.0 mi WSW 9.2 mph 17.3 mph N/A   Mostly Cloudy
2:15 AM 51.8 °F - 48.2 °F 88% 29.69 in 10.0 mi West 12.7 mph 21.9 mph N/A   Mostly Cloudy
2:55 AM 51.8 °F - 46.4 °F 82% 29.72 in 10.0 mi West 8.1 mph 18.4 mph N/A   Scattered Clouds
3:35 AM 51.8 °F - 46.4 °F 82% 29.74 in 10.0 mi West 10.4 mph 18.4 mph N/A   Partly Cloudy
3:55 AM 51.8 °F - 46.4 °F 82% 29.74 in 10.0 mi West 11.5 mph 19.6 mph N/A   Scattered Clouds
4:15 AM 50.0 °F - 46.4 °F 87% 29.75 in 10.0 mi WSW 8.1 mph - N/A   Partly Cloudy
4:35 AM 50.0 °F - 44.6 °F 82% 29.77 in 10.0 mi West 9.2 mph 16.1 mph N/A   Clear
4:55 AM 50.0 °F - 44.6 °F 82% 29.80 in 10.0 mi WSW 9.2 mph 16.1 mph N/A   Partly Cloudy
5:15 AM 50.0 °F - 44.6 °F 82% 29.81 in 10.0 mi West 9.2 mph 17.3 mph N/A   Scattered Clouds
5:35 AM 50.0 °F - 44.6 °F 82% 29.83 in 10.0 mi West 8.1 mph - N/A   Partly Cloudy
5:55 AM 50.0 °F - 42.8 °F 76% 29.85 in 10.0 mi West 12.7 mph 17.3 mph N/A   Clear
6:35 AM 50.0 °F - 42.8 °F 76% 29.88 in 10.0 mi WNW 11.5 mph - N/A   Clear
6:55 AM 50.0 °F - 39.2 °F 66% 29.89 in 10.0 mi West 17.3 mph 29.9 mph N/A   Clear
7:35 AM 48.2 °F - 39.2 °F 71% 29.94 in 10.0 mi WNW 10.4 mph 16.1 mph N/A   Clear
7:55 AM 48.2 °F - 39.2 °F 71% 29.95 in 10.0 mi West 13.8 mph 21.9 mph N/A   Clear
8:15 AM 48.2 °F - 39.2 °F 71% 29.96 in 10.0 mi WNW 15.0 mph 20.7 mph N/A   Clear
8:35 AM 48.2 °F - 39.2 °F 71% 29.96 in 10.0 mi WNW 15.0 mph 20.7 mph N/A   Clear
9:15 AM 48.2 °F - 37.4 °F 66% 29.99 in 10.0 mi WNW 15.0 mph 27.6 mph N/A   Clear
9:35 AM 48.2 °F - 37.4 °F 66% 30.00 in 10.0 mi WNW 10.4 mph 20.7 mph N/A   Clear
9:55 AM 50.0 °F - 37.4 °F 62% 30.01 in 10.0 mi NW 10.4 mph 20.7 mph N/A   Clear
10:15 AM 51.8 °F - 37.4 °F 58% 30.02 in 10.0 mi WNW 16.1 mph 19.6 mph N/A   Scattered Clouds
11:15 AM 51.8 °F - 37.4 °F 58% 30.01 in 10.0 mi NW 12.7 mph 20.7 mph N/A   Mostly Cloudy
11:55 AM 51.8 °F - 35.6 °F 54% 29.97 in 10.0 mi NW 9.2 mph 16.1 mph N/A   Partly Cloudy
12:15 PM 53.6 °F - 35.6 °F 51% 29.98 in 10.0 mi WNW 11.5 mph 17.3 mph N/A   Partly Cloudy
12:55 PM 53.6 °F - 35.6 °F 51% 29.99 in 10.0 mi WNW 16.1 mph 21.9 mph N/A   Clear
1:15 PM 53.6 °F - 35.6 °F 51% 29.99 in 10.0 mi WNW 12.7 mph 20.7 mph N/A   Clear
1:35 PM 53.6 °F - 35.6 °F 51% 29.99 in 10.0 mi WNW 12.7 mph 18.4 mph N/A   Clear
1:55 PM 53.6 °F - 35.6 °F 51% 29.99 in 10.0 mi WNW 12.7 mph 18.4 mph N/A   Clear
2:15 PM 53.6 °F - 35.6 °F 51% 30.00 in 10.0 mi WNW 12.7 mph 17.3 mph N/A   Partly Cloudy
2:55 PM 51.8 °F - 33.8 °F 50% 30.03 in 10.0 mi NW 11.5 mph 18.4 mph N/A   Overcast
3:15 PM 51.8 °F - 33.8 °F 50% 30.05 in 10.0 mi WNW 11.5 mph 16.1 mph N/A   Overcast
3:35 PM 51.8 °F - 35.6 °F 54% 30.06 in 10.0 mi WNW 10.4 mph - N/A   Overcast
4:15 PM 50.0 °F - 35.6 °F 58% 30.06 in 10.0 mi WNW 8.1 mph - N/A   Overcast
4:35 PM 50.0 °F - 35.6 °F 58% 30.07 in 10.0 mi WNW 8.1 mph - N/A   Overcast
4:55 PM 50.0 °F - 35.6 °F 58% 30.08 in 10.0 mi WNW 5.8 mph - N/A   Overcast
5:15 PM 48.2 °F - 35.6 °F 62% 30.09 in 10.0 mi West 3.5 mph - N/A   Overcast
5:35 PM 48.2 °F - 35.6 °F 62% 30.09 in 10.0 mi Calm Calm - N/A   Overcast
5:55 PM 48.2 °F - 33.8 °F 58% 30.08 in 10.0 mi Calm Calm - N/A   Overcast
6:15 PM 48.2 °F - 35.6 °F 62% 30.08 in 10.0 mi Calm Calm - N/A   Overcast
6:35 PM 46.4 °F - 35.6 °F 66% 30.08 in 10.0 mi Calm Calm - N/A   Mostly Cloudy
6:55 PM 46.4 °F - 35.6 °F 66% 30.09 in 10.0 mi Calm Calm - N/A   Mostly Cloudy
7:15 PM 46.4 °F - 35.6 °F 66% 30.06 in 10.0 mi Calm Calm - N/A   Partly Cloudy
7:55 PM 44.6 °F 43.1 °F 35.6 °F 71% 30.04 in 10.0 mi SE 3.5 mph - N/A   Partly Cloudy
8:15 PM 44.6 °F - 35.6 °F 71% 30.05 in 10.0 mi Calm Calm - N/A   Clear
8:35 PM 42.8 °F - 35.6 °F 76% 30.06 in 10.0 mi Calm Calm - N/A   Mostly Cloudy
8:55 PM 44.6 °F 43.1 °F 35.6 °F 71% 30.08 in 10.0 mi SW 3.5 mph - N/A   Overcast
9:15 PM 44.6 °F - 35.6 °F 71% 30.06 in 10.0 mi Calm Calm - N/A   Overcast
9:35 PM 44.6 °F - 35.6 °F 71% 30.05 in 10.0 mi Calm Calm - N/A   Overcast
10:15 PM 44.6 °F - 37.4 °F 76% 30.04 in 10.0 mi Calm Calm - N/A   Scattered Clouds
10:35 PM 44.6 °F - 35.6 °F 71% 30.04 in 10.0 mi Calm Calm - N/A   Mostly Cloudy
10:55 PM 46.4 °F 45.2 °F 35.6 °F 66% 30.02 in 10.0 mi South 3.5 mph - N/A   Scattered Clouds
11:15 PM 46.4 °F - 35.6 °F 66% 30.04 in 10.0 mi Calm Calm - N/A   Mostly Cloudy
11:35 PM 46.4 °F 45.2 °F 37.4 °F 71% 30.02 in 10.0 mi SE 3.5 mph - N/A   Overcast
11:55 PM 44.6 °F - 37.4 °F 76% 30.02 in 10.0 mi Calm Calm - N/A   Overcast